Location: Grange Rosano
(44.4500°N, 6.9667°E)
Time: 22:35:05
(UTC+00:00)

IDEFIX/ARIANE 42P - Visible Passes

Search period start: 28 September 2022 00:00
Search period end: 08 October 2022 00:00
Orbit: 785 x 801 km, 98.5° (Epoch: 28 September)

Date Brightness Start Highest point End Pass type
(mag) Time Alt. Az. Time Alt. Az. Time Alt. Az.
28 Sep 4.2 02:04:26 10° N 02:06:51 28° N 02:06:51 28° N visible
28 Sep 4.7 03:47:15 10° NW 03:47:39 10° NW 03:47:39 10° NW visible
29 Sep 4.6 01:35:55 10° NNE 01:37:54 23° NNE 01:37:54 23° NNE visible
29 Sep 4.5 03:16:44 10° NNW 03:18:42 16° NW 03:18:42 16° NW visible
30 Sep 5.1 01:07:38 10° NNE 01:08:56 17° NE 01:08:56 17° NE visible
30 Sep 4.3 02:47:28 10° N 02:49:44 22° NNW 02:49:44 22° NNW visible
01 Oct 5.5 00:39:46 10° NE 00:39:58 11° NE 00:39:58 11° NE visible
01 Oct 4.3 02:18:35 10° N 02:20:45 24° N 02:20:45 24° N visible
02 Oct 4.6 01:49:56 10° NNE 01:51:47 22° NNE 01:51:47 22° NNE visible
02 Oct 4.7 03:31:26 10° NNW 03:32:34 13° NW 03:32:34 13° NW visible
03 Oct 5.0 01:21:31 10° NNE 01:22:49 18° NNE 01:22:49 18° NNE visible
03 Oct 4.5 03:01:50 10° NNW 03:03:36 17° NNW 03:03:36 17° NNW visible
04 Oct 5.5 00:53:25 10° NE 00:53:50 12° NE 00:53:50 12° NE visible
04 Oct 4.4 02:32:46 10° N 02:34:38 21° NNW 02:34:38 21° NNW visible
05 Oct 4.6 02:04:00 10° N 02:05:39 21° N 02:05:39 21° N visible
06 Oct 5.0 01:35:28 10° NNE 01:36:41 17° NNE 01:36:41 17° NNE visible
06 Oct 4.7 03:16:17 10° NNW 03:17:28 14° NNW 03:17:28 14° NNW visible
07 Oct 5.4 01:07:12 10° NNE 01:07:42 13° NNE 01:07:42 13° NNE visible
07 Oct 4.6 02:47:01 10° N 02:48:30 17° NNW 02:48:30 17° NNW visible
